Starlink 5634

operational
NORAD ID: 55439 Int'l Des: 2023-014 Owner: SPXS Country: US Constellation: starlink
LEOCIRCULAR

Über Starlink 5634

Beschreibung wird geladen...

Live-Position

3D-Globus wird geladen...

Nächste Überflüge

Höhenverlauf

Altitude vs Time

uPlot chart will show altitude changes over time

Zweizeiliger Elementsatz

1 55439U 23014BA 25340.73807466 .00001511 00000-0 13437-3 0 9990
2 55439 70.0003 338.8922 0002665 271.0343 89.0511 14.98330786157143
Epoch: 6. Dez. 2025 • Age: 23 hours

Aktueller Status

Höhe 579.1 km
Geschwindigkeit 7.57 km/s
Subsatellitenpunkt 42.88°N, 34.21°E
Startdatum 31. Jan. 2023
Alter 2.8 years
Typ internet

Technische Details

Klassifizierung Payload
Masse 305.00 kg
Trockenmasse 290.00 kg
Gesamtmasse 305.00 kg
Länge 0.20 m
Durchmesser 2.80 m
Spannweite 9.00 m
Form Box + pan
Hersteller SPXS
Bus-Typ Starlink
Phasenstatus In Orbit
Besitzer/Staat SPXS/US

Große Konstellationen

Loading constellations...